Tracking 21998 objects as of 1-Dec-2020
HD Live streaming from Space Station
objects crossing your sky now

NSTAR A

Track NSTAR A now!
NSTAR A is classified as:


NORAD ID: 23651
Int'l Code: 1995-044A
Perigee: 36,035.3 km
Apogee: 36,201.1 km
Inclination: 10.8 °
Period: 1,452.7 minutes
Semi major axis: 42489 km
RCS: 15.8489 m2 (large)
Launch date: August 29, 1995
Source: Japan (JPN)
Launch site: FRENCH GUIANA (FRGUI)

Voice and TV broadcast to Japan and neighboring region.
aabbcc
Your satellite tracking list
Your tracking list is empty




NASA's NSSDC Master Catalog

Two Line Element Set (TLE):
1 23651U 95044A   20336.57146439 +.00000021 +00000-0 +00000-0 0  9995
2 23651 010.8411 034.5715 0019506 327.0926 172.7423 00.99125457091850
Source of the keplerian elements: AFSPC